Погода в Ульяновке

Украина / Сумская область     50°58′26″N   34°17′41″E
темп.,
°C
ветер,
м/с
пор.,
м/с
влажн.,
%
обл.,
%
осадки,
мм/ч
давл.,
гПа
погр.,
м
13 мая, чт
чт1300:00+6в369794 0.0 1013124
03:00+6вюв3698100 0.4 1013169
06:00+7вюв369867 0.6 1012280
09:00+10ююв578353 0.6 1012731
12:00+13ю676638 0.2 10121333
15:00+14ю4762100 0.3 10131274
18:00+15ююв356667 0.0 10121096
21:00+10ююв3481100 0.1 101348
14 мая, пт
пт1400:00+10юв468190 0.0 101380
03:00+9вюв4880100 0.0 1013117
06:00+10вюв4976100 0.0 1012186
09:00+15вюв5978100 0.0 1011374
12:00+20юв687298 0.1 10101221
15:00+21ююв696975 1.4 10081206
18:00+20ю59724 0.8 1007791
21:00+15ю34864 1.3 100851
15 мая, сб
сб1500:00+13ю379145 0.0 1008100
03:00+12ююз359241 0.0 100974
06:00+11ю499585 0.0 1010218
09:00+15юз69797 0.0 1010679
12:00+18юз686828 0.0 10121199
15:00+19юз686615 1.0 10121433
18:00+19юз69673 0.3 1012945
21:00+13юз35844 0.3 101371
16 мая, вс
вс1600:00+12зюз3388100 0.0 101341
03:00+11зюз22895 0.0 101428
06:00+11зсз22895 0.0 101541
09:00+16сз11690 0.0 1015385
12:00+21св11570 0.0 1014922
15:00+22вюв2251100 0.0 10131651
18:00+22вюв125512 0.0 10121558
21:00+16св348093 0.0 101344
17 мая, пн
пн1700:00+14св4108410 0.0 1012155
03:00+13св4118897 0.0 1011183
06:00+14св5128539 0.0 1010274
09:00+19в61076100 0.0 1008479
12:00+24вюв695790 0.0 1007817
15:00+25вюв7125962 0.0 10061472
18:00+23вюв6116789 0.0 1005620
21:00+18вюв498686 0.1 1005160